Change the Weather History Date:

Saturday, November 3, 2012

  Actual Average Record
Temperature  
Mean Temperature 61 °F 54 °F  
Max Temperature 70 °F 61 °F 78 °F (1997)
Min Temperature 51 °F 46 °F 23 °F (1935)
Degree Days  
Heating Degree Days 4 12  
Month to date heating degree days 21 34  
Since 1 July heating degree days 208 335  
Cooling Degree Days 0 0  
Month to date cooling degree days 0 0  
Year to date cooling degree days 1354 996  
Growing Degree Days 10 (Base 50)    
Moisture  
Dew Point 25 °F    
Average Humidity 32    
Maximum Humidity 50    
Minimum Humidity 14    
Precipitation  
Precipitation 0.00 in 0.02 in 0.58 in (1960)
Month to date precipitation 0.00 0.07  
Year to date precipitation 4.36 9.37  
Since 1 July precipitation 0.09 0.89  
Sea Level Pressure  
Sea Level Pressure 30.06 in    
Wind  
Wind Speed 9 mph (NE)    
Max Wind Speed 16 mph    
Max Gust Speed 23 mph    
Visibility 10 miles    
Events      
T = Trace of Precipitation, MM = Missing Value Source: NWS Daily Summary

Daily Weather History Graph

Daily Weather History Graph

Search for Another Location

Airport or City:

Trip Planner

Search our weather history database for the weather conditions in past years. The results will help you decide how hot, cold, wet, or windy it might be!

Date:

Astronomy

Nov. 03, 2012 Rise Set
Actual Time 7:17 AM PDT 5:58 PM PDT
Civil Twilight 6:51 AM PDT 6:24 PM PDT
Nautical Twilight 6:21 AM PDT 6:54 PM PDT
Astronomical Twilight 5:52 AM PDT 7:24 PM PDT
Moon 9:47 PM PDT 11:21 AM PDT
Length of Visible Light 11h 33m
Length of Day
10h 40m
Waning Gibbous, 79% of the Moon is Illuminated
Nov 3
Waning Gibbous
Nov 6
Last Quarter
Nov 13
New
Nov 20
First Quarter
Nov 28
Full

Hourly Weather History & Observations

Time (PDT) Temp. Dew Point Humidity Pressure Visibility Wind Dir Wind Speed Gust Speed Precip Events Conditions
12:48 AM 54.0 °F 28.9 °F 38% 29.99 in 10.0 mi NNW 9.2 mph - N/A   Clear
1:48 AM 55.0 °F 28.9 °F 37% 29.98 in 10.0 mi North 8.1 mph - N/A   Clear
2:48 AM 54.0 °F 28.0 °F 37% 29.99 in 10.0 mi North 9.2 mph - N/A   Clear
3:48 AM 54.0 °F 30.0 °F 40% 29.99 in 10.0 mi North 3.5 mph - N/A   Clear
4:48 AM 53.1 °F 32.0 °F 45% 30.01 in 10.0 mi North 5.8 mph - N/A   Clear
5:48 AM 52.0 °F 33.1 °F 49% 30.03 in 10.0 mi North 3.5 mph - N/A   Clear
6:48 AM 53.1 °F 28.0 °F 38% 30.05 in 10.0 mi NE 5.8 mph - N/A   Clear
7:48 AM 55.9 °F 28.9 °F 36% 30.06 in 10.0 mi ENE 6.9 mph - N/A   Clear
8:48 AM 62.1 °F 27.0 °F 26% 30.06 in 10.0 mi ENE 10.4 mph - N/A   Clear
9:48 AM 64.0 °F 27.0 °F 25% 30.07 in 10.0 mi ENE 9.2 mph - N/A   Clear
10:48 AM 66.0 °F 27.0 °F 23% 30.08 in 10.0 mi ENE 10.4 mph - N/A   Clear
11:48 AM 68.0 °F 26.1 °F 21% 30.08 in 10.0 mi East 13.8 mph 20.7 mph N/A   Clear
12:48 PM 68.0 °F 23.0 °F 18% 30.06 in 10.0 mi ENE 13.8 mph 21.9 mph N/A   Clear
1:48 PM 69.1 °F 21.9 °F 17% 30.04 in 10.0 mi East 12.7 mph 20.7 mph N/A   Clear
2:48 PM 69.1 °F 21.0 °F 16% 30.04 in 10.0 mi East 13.8 mph 19.6 mph N/A   Clear
3:48 PM 68.0 °F 18.0 °F 15% 30.04 in 10.0 mi ENE 10.4 mph - N/A   Clear
4:48 PM 66.2 °F 19.4 °F 17% 30.06 in 10.0 mi ENE 9.2 mph - N/A   Clear
5:10 PM - - N/A% - - North - - N/A   Unknown
5:48 PM 63.0 °F 19.0 °F 18% 30.07 in 10.0 mi East 11.5 mph - N/A   Clear
6:48 PM 62.1 °F 19.9 °F 20% 30.08 in 10.0 mi East 11.5 mph - N/A   Clear
7:48 PM 61.0 °F 19.9 °F 21% 30.09 in 10.0 mi ENE 10.4 mph - N/A   Clear
8:48 PM 60.1 °F 23.0 °F 24% 30.09 in 10.0 mi North 6.9 mph - N/A   Clear
9:48 PM 57.2 °F 26.6 °F 31% 30.23 in 10.0 mi NNW 6.9 mph - N/A   Clear
10:02 PM - - N/A% - - North - - N/A   Unknown
10:48 PM 57.9 °F 27.0 °F 31% 30.12 in 10.0 mi NNW 5.8 mph - N/A   Clear
11:48 PM 60.1 °F 21.0 °F 22% 30.12 in 10.0 mi Calm Calm - N/A   Clear